Location: Unspecified
(0.0000°N, 0.0000°E)
Time: 12:00:50
(UTC+00:00)

Transit 4A - Pass Details

Date: 14 December 2018
Orbit: 864 x 981 km, 66.8° (Epoch: 25 March)

Event Time Altitude Azimuth Distance (km) Brightness Sun altitude
Rises 14:41:57 0° 322° (NW) 3,616 11.0 43.2°
Reaches altitude 10° 14:44:42 10° 313° (NW) 2,687 10.6 42.6°
Maximum altitude 14:50:17 33° 250° (WSW) 1,563 11.3 41.5°
Drops below altitude 10° 14:55:57 10° 188° (S) 2,730 10.9 40.3°
Sets 14:58:48 0° 178° (S) 3,681 11.3 39.6°
